Waarnemingen

Advertentie
Mijn weer
Barcelona/Aeropuerto, Spanje (8181): temperatuur & dauwpunt: 17.05.2018 18:00:00 - 23.05.2018 18:00:00 (CEST)Barcelona/Aeropuerto, Spanje (8181): windsnelheid: 17.05.2018 18:00:00 - 23.05.2018 18:00:00 (CEST)Barcelona/Aeropuerto, Spanje (8181): windrichting: 17.05.2018 18:00:00 - 23.05.2018 18:00:00 (CEST)Barcelona/Aeropuerto, Spanje (8181): luchtdruk: 17.05.2018 18:00:00 - 23.05.2018 18:00:00 (CEST)Barcelona/Aeropuerto, Spanje (8181): zicht: 17.05.2018 18:00:00 - 23.05.2018 18:00:00 (CEST)
Datum & Tijd tt [°C] td [°C] ff [km/u] ff [kn] dd ppp [hPa] vv [km]
23.05.2018 18:00:00 21,8 17,0 22 12 ZW 1016,8 15
23.05.2018 17:00:00 22,5 17,1 26 14 ZW 1017,1 20
23.05.2018 16:00:00 22,8 16,7 24 13 ZW 1017,4 24
23.05.2018 15:00:00 22,6 17,4 22 12 ZW 1017,7 16
23.05.2018 14:00:00 21,8 16,7 26 14 ZW 1018,2 15
23.05.2018 13:00:00 21,8 16,3 24 13 ZW 1018,2 19
23.05.2018 12:00:00 21,2 16,4 21 11 ZW 1018,2 17
23.05.2018 11:00:00 21,3 16,8 13 7 ZZW 1017,8 12
23.05.2018 10:00:00 20,5 16,5 15 8 ZW 1017,8 10
23.05.2018 09:00:00 19,8 14,6 5 3 N 1017,7 11
23.05.2018 08:00:00 17,3 13,6 11 6 N 1017,5 12
23.05.2018 07:00:00 16,1 13,2 13 7 N 1017,2 9
23.05.2018 06:00:00 16,0 13,5 13 7 N 1017,0 8
23.05.2018 05:00:00 16,3 13,5 11 6 N 1017,1 9
23.05.2018 04:00:00 16,6 13,8 11 6 N 1017,1 9
23.05.2018 03:00:00 17,0 14,1 11 6 N 1017,1 10
23.05.2018 02:00:00 18,2 15,7 5 3 NW 1017,3 9
23.05.2018 01:00:00 19,3 16,7 11 6 ZW 1017,2 15
23.05.2018 00:00:00 19,1 16,5 8 4 Z 1017,1 19
22.05.2018 23:00:00 19,1 16,7 8 4 ZZW 1016,8 15
22.05.2018 22:00:00 19,3 16,5 8 4 Z 1016,0 18
22.05.2018 21:00:00 19,8 16,4 11 6 Z 1015,5 20
22.05.2018 20:00:00 20,8 16,5 11 6 ZW 1015,1 25
22.05.2018 19:00:00 21,4 16,1 11 6 ZW 1015,1 26
22.05.2018 18:00:00 21,4 16,1 15 8 ZW 1014,8 26
22.05.2018 17:00:00 21,8 16,3 16 9 ZZW 1014,3 15
22.05.2018 16:00:00 22,1 16,4 18 10 ZW 1014,4 16
22.05.2018 15:00:00 22,3 15,1 15 8 ZZW 1014,2 25
22.05.2018 14:00:00 21,9 14,9 13 7 Z 1014,4 20
22.05.2018 13:00:00 21,9 15,0 13 7 ZZO 1014,6 17
22.05.2018 12:00:00 21,6 14,7 13 7 OZO 1014,6 30
22.05.2018 11:00:00 21,0 14,9 11 6 ONO 1014,4 15
22.05.2018 10:00:00 19,7 14,5 9 5 ONO 1014,2 27
22.05.2018 09:00:00 18,7 13,5 4 2 NO 1013,9 14
22.05.2018 08:00:00 17,8 13,1 9 5 NNO 1013,3 15
22.05.2018 07:00:00 17,4 13,0 15 8 N 1012,6 18
22.05.2018 06:00:00 17,5 12,8 13 7 N 1012,1 20
22.05.2018 05:00:00 17,4 12,5 9 5 N 1011,5 20
22.05.2018 04:00:00 17,1 12,4 0 0 N 1011,5 25
22.05.2018 03:00:00 16,9 11,4 11 6 W 1011,5 30
22.05.2018 02:00:00 18,7 11,0 11 6 N 1011,7 18
22.05.2018 01:00:00 19,7 9,8 2 1 ONO 1012,2 27
22.05.2018 00:00:00 19,3 10,3 2 1 WNW 1012,8 30
21.05.2018 23:00:00 18,9 13,7 5 3 N 1013,0 25
21.05.2018 22:00:00 18,6 14,1 8 4 W 1012,4 26
21.05.2018 21:00:00 19,5 12,6 9 5 ZW 1012,0 30
21.05.2018 20:00:00 20,3 12,0 13 7 ZW 1011,5 30
21.05.2018 19:00:00 20,8 11,4 13 7 ZW 1011,5 21
21.05.2018 18:00:00 21,0 13,1 13 7 ZW 1011,0 30
21.05.2018 17:00:00 21,5 13,2 11 6 Z 1011,1 30
21.05.2018 16:00:00 20,4 12,1 13 7 ZZO 1011,6 24
21.05.2018 15:00:00 21,2 12,5 13 7 ZO 1011,9 27
21.05.2018 14:00:00 20,4 13,7 18 10 ZO 1012,3 22
21.05.2018 13:00:00 21,1 13,6 13 7 ZZO 1012,6 30
21.05.2018 12:00:00 21,6 13,6 11 6 ZO 1012,8 18
21.05.2018 11:00:00 20,9 14,7 8 4 OZO 1013,0 17
21.05.2018 10:00:00 18,9 13,8 15 8 O 1013,2 17
21.05.2018 09:00:00 18,2 13,3 8 4 NNO 1013,0 16
21.05.2018 08:00:00 16,4 12,4 11 6 N 1012,7 20
21.05.2018 07:00:00 15,6 12,3 13 7 N 1012,7 15
21.05.2018 06:00:00 16,0 12,4 11 6 N 1012,6 15
21.05.2018 05:00:00 16,2 12,7 11 6 N 1012,5 20
21.05.2018 04:00:00 16,4 12,7 11 6 N 1012,6 20
21.05.2018 03:00:00 16,6 12,7 13 7 N 1012,7 20
21.05.2018 02:00:00 16,9 12,6 8 4 N 1013,3 20
21.05.2018 01:00:00 17,3 14,6 5 3 N 1013,8 10
21.05.2018 00:00:00 17,8 15,4 8 4 ONO 1014,1 12
20.05.2018 23:00:00 18,0 15,3 13 7 O 1014,2 20
20.05.2018 22:00:00 18,1 15,2 11 6 O 1013,9 19
20.05.2018 21:00:00 18,8 14,5 15 8 O 1013,7 30
20.05.2018 20:00:00 20,1 13,7 16 9 OZO 1013,2 25
20.05.2018 19:00:00 22,8 10,7 21 11 O 1013,2 30
20.05.2018 18:00:00 22,4 11,6 13 7 O 1013,5 24
20.05.2018 17:00:00 22,4 10,9 13 7 O 1013,9 28
20.05.2018 16:00:00 22,6 13,6 11 6 ZO 1014,4 30
20.05.2018 15:00:00 21,8 13,8 11 6 ZZO 1014,8 24
20.05.2018 14:00:00 21,5 13,3 21 11 ZZO 1014,9 28
20.05.2018 13:00:00 22,9 12,8 18 10 ZZO 1014,8 28
20.05.2018 12:00:00 23,3 11,7 16 9 ZO 1015,1 30
20.05.2018 11:00:00 23,6 10,5 8 4 NO 1015,2 30
20.05.2018 10:00:00 21,8 12,2 13 7 N 1015,2 30
20.05.2018 09:00:00 19,8 12,2 16 9 N 1015,3 30
20.05.2018 08:00:00 17,6 12,9 21 11 N 1015,3 25
20.05.2018 07:00:00 16,7 13,0 18 10 N 1015,0 16
20.05.2018 06:00:00 16,9 13,2 18 10 N 1015,1 21
20.05.2018 05:00:00 17,2 13,5 15 8 N 1015,1 20
20.05.2018 04:00:00 17,6 13,5 11 6 N 1015,4 22
20.05.2018 03:00:00 18,1 13,6 13 7 N 1015,7 14
20.05.2018 02:00:00 18,7 13,3 11 6 N 1016,1 25
20.05.2018 01:00:00 19,1 14,4 5 3 W 1016,3 29
20.05.2018 00:00:00 19,5 14,1 9 5 WZW 1016,5 27
19.05.2018 23:00:00 19,6 14,0 11 6 WZW 1016,3 25
19.05.2018 22:00:00 20,3 12,3 8 4 N 1015,7 30
19.05.2018 21:00:00 20,3 13,0 13 7 NNW 1015,6 30
19.05.2018 20:00:00 21,1 11,6 8 4 OZO 1015,3 30
19.05.2018 19:00:00 22,2 11,3 9 5 ZZO 1015,6 30
19.05.2018 18:00:00 22,6 11,6 11 6 ZZO 1016,2 30
19.05.2018 17:00:00 23,9 11,7 8 4 ZW 1016,2 30
19.05.2018 16:00:00 23,3 12,0 15 8 ZW 1016,3 30
19.05.2018 15:00:00 22,8 14,1 15 8 ZW 1016,8 26
19.05.2018 14:00:00 23,0 13,6 13 7 ZZW 1016,7 25
19.05.2018 13:00:00 23,4 12,1 11 6 Z 1017,1 30
19.05.2018 12:00:00 23,0 11,2 15 8 ZZO 1017,1 26
19.05.2018 11:00:00 24,0 12,5 8 4 ZO 1016,9 35
19.05.2018 10:00:00 21,8 12,1 13 7 N 1017,1 29
19.05.2018 09:00:00 19,1 12,6 15 8 N 1016,9 16
19.05.2018 08:00:00 17,4 12,0 16 9 N 1016,8 19
19.05.2018 07:00:00 15,1 11,7 18 10 N 1016,5 10
19.05.2018 06:00:00 15,9 12,1 11 6 NNW 1016,2 11
19.05.2018 05:00:00 16,2 12,2 9 5 N 1016,3 13
19.05.2018 04:00:00 16,6 12,3 9 5 N 1016,3 10
19.05.2018 03:00:00 17,1 12,4 13 7 NNW 1016,5 13
19.05.2018 02:00:00 16,9 12,2 2 1 N 1017,0 30
19.05.2018 01:00:00 16,8 11,8 5 3 NNW 1017,2 27
19.05.2018 00:00:00 17,3 12,5 4 2 WNW 1017,3 20
18.05.2018 23:00:00 17,9 13,6 8 4 W 1017,3 25
18.05.2018 22:00:00 19,1 13,9 9 5 ZW 1017,1 30
18.05.2018 21:00:00 19,1 12,1 8 4 WZW 1016,9 30
18.05.2018 20:00:00 19,7 12,6 8 4 ZW 1016,5 20
18.05.2018 19:00:00 20,5 13,7 11 6 ZZW 1016,6 30
18.05.2018 18:00:00 21,3 13,7 8 4 ZZW 1017,0 27
18.05.2018 17:00:00 21,2 13,9 9 5 Z 1017,0 18
18.05.2018 16:00:00 21,5 13,7 11 6 Z 1017,0 30
18.05.2018 15:00:00 20,9 13,0 11 6 ZZO 1017,3 28
18.05.2018 14:00:00 20,8 13,5 9 5 ZO 1017,7 17
18.05.2018 13:00:00 20,7 14,1 9 5 ZZO 1018,0 30
18.05.2018 12:00:00 20,4 13,0 13 7 ZO 1017,9 30
18.05.2018 11:00:00 21,1 13,3 11 6 ZO 1017,5 15
18.05.2018 10:00:00 20,7 12,4 13 7 OZO 1017,5 24
18.05.2018 09:00:00 20,2 12,2 8 4 NNO 1017,2 14
18.05.2018 08:00:00 18,2 11,7 15 8 N 1017,0 17
18.05.2018 07:00:00 17,0 11,3 15 8 N 1016,6 18
18.05.2018 06:00:00 17,3 11,1 11 6 N 1015,9 19
18.05.2018 05:00:00 18,4 10,2 11 6 NO 1016,0 30
18.05.2018 04:00:00 18,5 10,5 11 6 N 1016,1 26
18.05.2018 03:00:00 18,8 10,3 11 6 N 1016,2 30
18.05.2018 02:00:00 19,1 10,5 8 4 N 1016,7 30
18.05.2018 01:00:00 18,9 10,4 5 3 NW 1017,2 30
18.05.2018 00:00:00 18,7 12,0 5 3 W 1017,1 30
17.05.2018 23:00:00 18,9 11,9 8 4 WZW 1017,1 30
17.05.2018 22:00:00 18,8 11,0 11 6 W 1016,6 30
17.05.2018 21:00:00 18,9 12,9 9 5 WZW 1016,3 30
17.05.2018 20:00:00 19,7 12,9 11 6 WZW 1016,1 30
17.05.2018 19:00:00 20,5 12,8 13 7 ZZW 1016,1 30
17.05.2018 18:00:00 20,9 12,9 15 8 ZZO 1015,9 30

tt = temperatuur
td = dauwpunt
ff = windsnelheid
dd = windrichting
ppp = luchtdruk
vv = zicht

Weerstations in de omgeving